Location: Carrer del Canonge
(41.4901°N, 2.2931°E)
Time: 11:45:22
(UTC+00:00)

CZ-2D R/B - Visible Passes

Search period start: 18 January 2021 00:00
Search period end: 28 January 2021 00:00
Orbit: 521 x 538 km, 97.4° (Epoch: 17 January)

Date Brightness Start Highest point End Pass type
(mag) Time Alt. Az. Time Alt. Az. Time Alt. Az.
18 Jan 5.0 06:31:05 10° NNE 06:34:39 37° E 06:38:11 10° SSE visible
18 Jan 4.6 17:13:51 10° ESE 17:16:43 20° ENE 17:19:34 10° NNE visible
18 Jan 5.3 18:47:30 10° SSW 18:50:52 28° W 18:54:16 10° NW visible
19 Jan 5.6 06:20:39 10° NE 06:23:58 28° E 06:27:15 10° SSE visible
19 Jan 4.8 18:36:34 10° SSW 18:40:11 38° W 18:43:49 10° NNW visible
20 Jan 6.1 06:10:19 10° NE 06:13:16 21° E 06:16:12 10° SE visible
20 Jan 4.1 18:25:45 10° S 18:29:31 52° W 18:33:18 10° NNW visible
21 Jan 6.4 06:00:08 10° NE 06:02:32 16° E 06:04:56 10° SE visible
21 Jan 3.5 18:15:02 10° S 18:18:52 72° WSW 18:22:43 10° NNW visible
22 Jan 6.7 05:50:16 10° ENE 05:51:48 12° E 05:53:19 10° ESE visible
22 Jan 3.1 18:04:22 10° SSE 18:08:13 83° ENE 18:12:05 10° N visible
23 Jan 3.2 17:53:48 10° SSE 17:57:36 61° ENE 18:01:24 10° N visible
24 Jan 3.5 17:43:19 10° SE 17:46:59 44° ENE 17:50:40 10° N visible
24 Jan 6.6 19:19:50 10° WSW 19:21:33 13° W 19:23:16 10° WNW visible
25 Jan 3.9 17:32:55 10° SE 17:36:23 33° ENE 17:39:52 10° N visible
25 Jan 6.3 19:08:18 10° SW 19:10:49 17° W 19:13:21 10° NW visible
26 Jan 4.3 17:22:37 10° SE 17:25:48 25° ENE 17:28:59 10° NNE visible
26 Jan 5.9 18:57:04 10° SSW 19:00:06 22° W 19:03:08 10° NW visible
27 Jan 5.1 06:29:36 10° NNE 06:33:10 37° E 06:36:41 10° SSE visible
27 Jan 5.3 18:46:02 10° SSW 18:49:24 29° W 18:52:46 10° NW visible
